EW0380 Weather Reports


Display with metric or nautical units.
time (UTC)temp
F
wind
direction
speed
MPH
gust
MPH
rain 1hr
in
rain 24hr
in
rain mn
in
humidity
%
barometer
mb
20260506033018 49 352 1.0 3.0 0.16 0.98 0.98 98 1009.8
20260506032043 49 0.0 0.0 0.17 0.96 0.96 97 1009.8
20260506031027 49 0.0 0.0 0.16 0.94 0.94 97 1010.0
20260506030031 49 0.0 0.0 0.15 0.91 0.91 97 1010.2
20260506025018 49 0.0 0.0 0.12 0.88 0.88 97 1010.3
20260506024022 49 0.0 0.0 0.09 0.85 0.85 97 1010.3
20260506023026 49 0.0 0.0 0.07 0.82 0.82 97 1010.3
20260506022024 49 223 2.0 3.0 0.06 0.79 0.79 97 1010.0
20260506021016 49 248 0.0 2.0 0.06 0.78 0.78 97 1010.0
20260506020020 49 259 1.0 3.0 0.05 0.76 0.76 97 1009.8
20260506015019 49 0.0 0.0 0.06 0.76 0.76 97 1009.7
20260506014017 49 0.0 0.0 0.06 0.76 0.76 97 1009.6
20260506013015 49 0.0 0.0 0.05 0.75 0.75 97 1009.5
20260506012019 49 0.0 0.0 0.05 0.73 0.73 97 1009.6
20260506011024 49 0.0 0.0 0.07 0.72 0.72 97 1009.3
20260506010029 49 113 2.0 4.0 0.10 0.71 0.71 97 1009.5
20260506005015 49 113 1.0 3.0 0.15 0.70 0.70 97 1009.6
20260506004019 49 113 3.0 4.0 0.16 0.70 0.70 97 1009.9
20260506003023 49 49 1.0 3.0 0.18 0.70 0.70 96 1010.1
20260506002028 49 257 1.0 2.0 0.17 0.68 0.68 96 1010.0
20260506001033 49 0.0 0.0 0.21 0.65 0.65 96 1010.0
20260506000038 49 284 2.0 5.0 0.19 0.61 0.61 96 1009.5
20260505235022 49 20 1.0 2.0 0.15 0.55 0.55 96 1009.6
20260505234026 49 0 0.0 2.0 0.19 0.54 0.54 96 1009.9
20260505233031 49 52 1.0 2.0 0.17 0.52 0.52 96 1010.2
20260505232017 49 266 2.0 4.0 0.16 0.51 0.51 96 1009.8
20260505231022 49 261 1.0 3.0 0.11 0.44 0.44 95 1010.0
20260505230026 49 242 2.0 3.0 0.13 0.42 0.42 95 1009.5
20260505225050 49 6 1.0 2.0 0.16 0.40 0.40 95 1009.8
20260505224016 50 241 1.0 3.0 0.16 0.35 0.35 94 1009.8
20260505223020 49 248 0.0 1.0 0.16 0.35 0.35 94 1009.8
20260505222025 49 18 2.0 2.0 0.19 0.35 0.35 94 1009.6
20260505221048 50 37 2.0 3.0 0.21 0.33 0.33 94 1009.8
20260505220015 50 5 2.0 4.0 0.20 0.29 0.29 93 1009.3
20260505215039 50 315 2.0 4.0 0.18 0.24 0.24 93 1009.3
20260505214024 51 1 3.0 6.0 0.15 0.19 0.19 93 1009.4
20260505213028 52 7 4.0 6.0 0.17 0.19 0.19 93 1009.5
20260505212032 53 15 3.0 4.0 0.15 0.16 0.16 93 1009.5
20260505211038 54 12 3.0 6.0 0.12 0.12 0.12 93 1009.0
20260505210022 55 7 2.0 4.0 0.09 0.09 0.09 92 1008.9
20260505205027 55 341 2.0 3.0 0.06 0.06 0.06 92 1009.0
20260505204025 56 303 2.0 3.0 0.04 0.04 0.04 91 1009.1
20260505203018 56 17 2.0 3.0 0.02 0.02 0.02 89 1009.1
20260505202022 57 270 3.0 4.0 0.01 0.01 0.01 87 1009.1
20260505201020 58 301 2.0 4.0 0.00 0.00 0.00 85 1009.1
20260505200018 58 281 3.0 4.0 0.00 0.00 0.00 84 1008.9
20260505195016 59 32 3.0 4.0 0.00 0.00 0.00 82 1008.9
20260505194015 60 315 3.0 5.0 0.00 0.00 0.00 80 1008.9
20260505193045 61 282 3.0 5.0 0.00 0.00 0.00 77 1008.8
20260505192029 61 332 2.0 4.0 0.00 0.00 0.00 77 1008.9
20260505191016 61 322 4.0 6.0 0.00 0.00 0.00 76 1008.9
20260505190021 61 86 3.0 4.0 0.00 0.00 0.00 77 1009.0
20260505185044 61 276 5.0 9.0 0.00 0.00 0.00 76 1009.0
20260505184029 62 271 4.0 7.0 0.00 0.00 0.00 74 1009.1
20260505183015 63 252 3.0 6.0 0.00 0.00 0.00 73 1009.1
20260505182019 63 328 3.0 5.0 0.00 0.00 0.00 74 1009.0
20260505181024 63 291 4.0 8.0 0.00 0.00 0.00 74 1008.9
20260505180029 62 261 4.0 7.0 0.00 0.00 0.00 74 1008.8
20260505175014 62 266 3.0 9.0 0.00 0.00 0.00 74 1008.8
20260505174019 62 285 5.0 8.0 0.00 0.00 0.00 73 1008.6
20260505173023 63 239 5.0 7.0 0.00 0.00 0.00 71 1008.5
20260505172027 64 277 7.0 13.0 0.00 0.00 0.00 68 1008.3
20260505171031 66 261 5.0 7.0 0.00 0.00 0.00 66 1008.2
20260505170018 67 253 5.0 8.0 0.00 0.00 0.00 65 1007.8
20260505165022 69 6 5.0 7.0 0.00 0.00 0.00 63 1007.7
20260505164026 70 263 4.0 6.0 0.00 0.00 0.00 62 1007.6
20260505163031 70 248 6.0 9.0 0.00 0.00 0.00 61 1007.4
20260505162018 69 232 12.0 17.0 0.00 0.00 0.00 61 1008.0
20260505161021 68 233 11.0 14.0 0.00 0.00 0.00 62 1007.8
20260505153020 67 207 9.0 11.0 0.00 0.00 0.00 65 1007.6
20260505152025 66 222 10.0 14.0 0.00 0.00 0.00 65 1007.9
20260505151029 66 232 9.0 15.0 0.00 0.00 0.00 65 1007.7
20260505125018 64 203 11.0 15.0 0.00 0.00 0.00 67 1006.2
20260505124022 64 212 11.0 14.0 0.00 0.00 0.00 66 1006.0
20260505123027 64 198 11.0 13.0 0.00 0.00 0.00 66 1005.9
20260505122051 64 200 11.0 15.0 0.00 0.00 0.00 66 1005.9
20260505121017 64 203 9.0 12.0 0.00 0.00 0.00 66 1005.9
20260505120021 65 205 10.0 14.0 0.00 0.00 0.00 66 1005.9
20260505115026 64 218 10.0 12.0 0.00 0.00 0.00 66 1005.9
20260505114030 64 216 9.0 11.0 0.00 0.00 0.00 67 1005.7
20260505113016 64 205 13.0 17.0 0.00 0.00 0.00 66 1005.5
20260505112021 64 211 11.0 15.0 0.00 0.00 0.00 67 1005.4
20260505111025 64 210 10.0 12.0 0.00 0.00 0.00 67 1005.4
20260505102029 63 199 7.0 9.0 0.00 0.00 0.00 68 1004.7
20260505101015 63 200 7.0 9.0 0.00 0.00 0.00 68 1004.5
20260505100039 64 199 7.0 8.0 0.00 0.00 0.00 66 1004.3
20260505095023 64 203 8.0 10.0 0.00 0.00 0.00 66 1004.3
20260505094027 64 205 9.0 12.0 0.00 0.00 0.00 66 1004.2
20260505093052 65 202 9.0 11.0 0.00 0.00 0.00 65 1004.1
20260505092018 65 205 11.0 14.0 0.00 0.00 0.00 64 1004.1
20260505091023 65 208 10.0 12.0 0.00 0.00 0.00 65 1004.2
20260505090027 65 208 11.0 13.0 0.00 0.00 0.00 64 1004.2
20260505085025 65 204 10.0 13.0 0.00 0.00 0.00 65 1004.1
20260505084017 65 206 8.0 10.0 0.00 0.00 0.00 65 1004.1
20260505083022 65 204 9.0 10.0 0.00 0.00 0.00 65 1004.0
20260505082020 64 205 7.0 9.0 0.00 0.00 0.00 67 1004.0
20260505081019 64 199 8.0 10.0 0.00 0.00 0.00 67 1003.7
20260505080016 64 198 8.0 11.0 0.00 0.00 0.00 68 1003.8
20260505075015 64 192 9.0 11.0 0.00 0.00 0.00 69 1003.7
20260505074025 63 183 7.0 8.0 0.00 0.00 0.00 71 1003.7
20260505073029 62 181 7.0 10.0 0.00 0.00 0.00 73 1003.7
20260505072015 62 173 8.0 11.0 0.00 0.00 0.00 73 1003.7
20260505071020 62 185 8.0 11.0 0.00 0.00 0.00 72 1003.9
20260505070025 62 198 8.0 10.0 0.00 0.00 0.00 72 1003.9
20260505065029 62 185 8.0 11.0 0.00 0.00 0.00 72 1004.0
20260505064015 62 183 8.0 11.0 0.00 0.00 0.00 73 1004.1
20260505063019 62 182 8.0 11.0 0.00 0.00 0.00 72 1004.1
20260505062023 62 188 8.0 11.0 0.00 0.00 0.00 73 1004.3
20260505061028 62 182 9.0 11.0 0.00 0.00 0.00 73 1004.4
20260505060032 62 183 8.0 11.0 0.00 0.00 0.00 73 1004.7
20260505055018 62 182 8.0 11.0 0.00 0.00 0.00 73 1004.8
20260505054144 62 197 9.0 15.0 0.00 0.00 0.00 73 1004.9
20260505053028 62 196 11.0 12.0 0.00 0.00 0.00 72 1005.0
20260505052032 63 198 9.0 11.0 0.00 0.00 0.00 71 1005.2
20260505051018 64 193 10.0 14.0 0.00 0.00 0.00 67 1005.2
20260505041025 65 178 11.0 13.0 0.00 0.00 0.00 65 1005.4
20260505040029 65 183 10.0 16.0 0.00 0.00 0.00 65 1005.4
20260505035016 65 200 10.0 12.0 0.00 0.00 0.00 65 1005.4
20260505034021 65 193 10.0 13.0 0.00 0.00 0.00 65 1005.4